Flag for Switzerland Weather past 2 weeks in Langenthal, Bern, Switzerland

Now
33 °F

Chilly.


Feels Like: 33 °F
Forecast: 25 / 49 °F
Wind: 1 mph from North

Location: Wynau

Current Time: Mar 6, 2015 at 9:39:01 PM

Latest Report: Mar 6, 2015 at 9:00 PM


Visibility: N/A

Pressure: 30.62 "Hg

Humidity: 82%

Dew point: 28 °F

Location of LangenthalLocation

Historic Weather in Langenthal — Graph

°F

Langenthal temperature yesterday

Maximum temperature yesterday: 44 °F (at 4:00 PM)
Minimum temperature yesterday: 29 °F (at 6:00 AM)
Average temperature yesterday: 36 °F

Past Weeks' High & Low Weather Summary

 TemperatureHumidityPressure
High52 °F (Mar 3, 3:00 PM)100% (Feb 20, 5:00 AM)30.70 "Hg (Feb 20, 5:00 AM)
Low23 °F (Feb 20, 7:00 AM)38% (Feb 26, 4:00 PM)29.62 "Hg (Feb 21, 10:00 AM)
Average37 °F82%30.09 "Hg
* Reported Feb 19 8:00 PM — Mar 6 8:00 PM, Langenthal, Weather by CustomWeather, © 2015

Note: Actual official high and low records may vary slightly from our data, if they occured in-between our weather recording intervals... More about our weather records

Advertising

Langenthal weather history for previous 24 hours

 ConditionsComfort  
Time TempWeatherWind HumidityBarometerVisibility
8:00 PM
Fri, Mar 6
36 °FChilly.No wind75%30.60 "HgN/A
7:00 PM39 °FChilly.1 mph63%30.59 "HgN/A
6:00 PM45 °FCool.5 mph45%30.57 "HgN/A
5:00 PM48 °FCool.5 mph40%30.55 "HgN/A
4:00 PM49 °FCool.5 mph42%30.56 "HgN/A
3:00 PM47 °FCool.8 mph39%30.58 "HgN/A
2:00 PM47 °FCool.7 mph42%30.59 "HgN/A
12:00 PM44 °FQuite cool.13 mph48%30.64 "HgN/A
11:00 AM41 °FQuite cool.14 mph59%30.66 "HgN/A
10:00 AM38 °FChilly.10 mph65%30.68 "HgN/A
9:00 AM32 °FChilly.2 mph83%30.70 "HgN/A
8:00 AM27 °FChilly.1 mph92%30.70 "HgN/A
7:00 AM26 °FChilly.No wind96%30.70 "HgN/A
6:00 AM26 °FChilly.1 mph96%30.68 "HgN/A
5:00 AM26 °FChilly.No wind93%30.68 "HgN/A
3:00 AM28 °FChilly.No wind89%30.68 "HgN/A
2:00 AM29 °FChilly.No wind88%30.67 "HgN/A
1:00 AM30 °FChilly.1 mph85%30.67 "HgN/A
12:00 AM30 °FChilly.1 mph83%30.67 "HgN/A
11:00 PM
Thu, Mar 5
31 °FChilly.2 mph78%30.67 "HgN/A
10:00 PM33 °FChilly.1 mph77%30.66 "HgN/A
9:00 PM35 °FChilly.1 mph68%30.64 "HgN/A
Weather by CustomWeather, © 2015

See weather overviewHow to use our weather pages